Tiempo cada hora Cegielnia

Hoy, 19 Abril, Lunes

Tiempo Temperatura Precipitaciones Viento Presión Humedad
00:00 +8°C° 0 mm 2 mps 762 mmHg 79%
01:00 +8°C° 0 mm 2 mps 762 mmHg 84%
02:00 +8°C° 0 mm 2 mps 761 mmHg 87%
03:00 +7°C° 0 mm 2 mps 761 mmHg 90%
04:00 +7°C° 0 mm 3 mps 761 mmHg 92%
05:00 +8°C° 0 mm 3 mps 761 mmHg 90%
06:00 +8°C° 0 mm 3 mps 761 mmHg 87%
07:00 +9°C° 0 mm 3 mps 760 mmHg 83%
08:00 +11°C° 0 mm 3 mps 760 mmHg 78%
09:00 +13°C° 0 mm 3 mps 760 mmHg 72%
10:00 +16°C° 0 mm 3 mps 760 mmHg 66%
11:00 +17°C° 0.3 mm 4 mps 760 mmHg 60%
12:00 +17°C° 0.3 mm 4 mps 760 mmHg 54%
13:00 +18°C° 0 mm 4 mps 759 mmHg 49%
14:00 +18°C° 0.1 mm 4 mps 759 mmHg 50%
15:00 +18°C° 0.1 mm 3 mps 759 mmHg 51%
16:00 +17°C° 0.1 mm 3 mps 759 mmHg 52%
17:00 +16°C° 0.1 mm 3 mps 759 mmHg 58%
18:00 +14°C° 0.1 mm 3 mps 759 mmHg 64%
19:00 +13°C° 0.1 mm 2 mps 759 mmHg 70%
20:00 +13°C° 0 mm 2 mps 759 mmHg 70%
21:00 +12°C° 0 mm 1 mps 759 mmHg 70%
22:00 +12°C° 0 mm 1 mps 760 mmHg 70%
23:00 +11°C° 0 mm 1 mps 759 mmHg 72%

Mañana, 20 Abril, Martes

Tiempo Temperatura Precipitaciones Viento Presión Humedad
00:00 +11°C° 0 mm 1 mps 759 mmHg 74%
01:00 +10°C° 0 mm 1 mps 759 mmHg 75%
02:00 +10°C° 0 mm 1 mps 759 mmHg 75%
03:00 +10°C° 0 mm 1 mps 759 mmHg 76%
04:00 +10°C° 0 mm 1 mps 759 mmHg 76%
05:00 +10°C° 0 mm 1 mps 759 mmHg 75%
06:00 +11°C° 0 mm 1 mps 759 mmHg 73%
07:00 +12°C° 0 mm 1 mps 759 mmHg 72%
08:00 +12°C° 0.2 mm 1 mps 759 mmHg 68%
09:00 +13°C° 0.2 mm 1 mps 759 mmHg 64%
10:00 +14°C° 0.2 mm 1 mps 759 mmHg 60%
11:00 +15°C° 0.3 mm 1 mps 759 mmHg 58%
12:00 +15°C° 0.3 mm 1 mps 758 mmHg 56%
13:00 +16°C° 0.3 mm 1 mps 758 mmHg 54%
14:00 +15°C° 0.2 mm 0 mps 758 mmHg 54%
15:00 +15°C° 0.2 mm 0 mps 757 mmHg 53%
16:00 +15°C° 0.2 mm 0 mps 757 mmHg 53%
17:00 +14°C° 0.2 mm 0 mps 757 mmHg 58%
18:00 +14°C° 0.2 mm 1 mps 757 mmHg 64%
19:00 +13°C° 0.2 mm 1 mps 757 mmHg 69%
20:00 +12°C° 0.1 mm 1 mps 757 mmHg 72%
21:00 +11°C° 0.1 mm 1 mps 757 mmHg 75%
22:00 +11°C° 0.1 mm 1 mps 757 mmHg 78%
23:00 +10°C° 0.2 mm 1 mps 756 mmHg 81%

Pasado mañana, 21 Abril, Miércoles

Tiempo Temperatura Precipitaciones Viento Presión Humedad
00:00 +10°C° 0.2 mm 1 mps 756 mmHg 83%
01:00 +10°C° 0.2 mm 1 mps 756 mmHg 86%
02:00 +8°C° 0.3 mm 2 mps 756 mmHg 88%
03:00 +8°C° 0.3 mm 2 mps 756 mmHg 90%
04:00 +7°C° 0.3 mm 2 mps 755 mmHg 92%
05:00 +8°C° 0 mm 2 mps 755 mmHg 89%
06:00 +9°C° 0 mm 3 mps 755 mmHg 86%
07:00 +9°C° 0 mm 3 mps 755 mmHg 83%
08:00 +11°C° 0 mm 4 mps 755 mmHg 76%
09:00 +12°C° 0 mm 4 mps 755 mmHg 70%
10:00 +13°C° 0 mm 5 mps 755 mmHg 64%
11:00 +14°C° 0.2 mm 5 mps 755 mmHg 60%
12:00 +15°C° 0.2 mm 5 mps 755 mmHg 57%
13:00 +15°C° 0.2 mm 6 mps 754 mmHg 53%
14:00 +15°C° 0.1 mm 5 mps 754 mmHg 55%
15:00 +14°C° 0.1 mm 5 mps 754 mmHg 56%
16:00 +14°C° 0.1 mm 5 mps 754 mmHg 58%
17:00 +13°C° 0 mm 4 mps 754 mmHg 61%
18:00 +12°C° 0 mm 4 mps 754 mmHg 65%
19:00 +11°C° 0 mm 3 mps 754 mmHg 68%
20:00 +10°C° 0 mm 4 mps 754 mmHg 72%
21:00 +8°C° 0 mm 4 mps 755 mmHg 76%
22:00 +8°C° 0 mm 5 mps 755 mmHg 81%
23:00 +7°C° 0.1 mm 5 mps 755 mmHg 82%

22 Abril, Jueves

Tiempo Temperatura Precipitaciones Viento Presión Humedad
00:00 +6°C° 0.1 mm 4 mps 755 mmHg 82%
01:00 +5°C° 0.1 mm 4 mps 755 mmHg 83%
02:00 +5°C° 0.1 mm 4 mps 755 mmHg 83%
03:00 +3°C° 0.1 mm 5 mps 756 mmHg 84%
04:00 +2°C° 0.1 mm 5 mps 756 mmHg 84%
05:00 +2°C° 0 mm 6 mps 756 mmHg 80%
06:00 +2°C° 0 mm 6 mps 756 mmHg 75%
07:00 +2°C° 0 mm 7 mps 756 mmHg 71%
08:00 +3°C° 0 mm 7 mps 756 mmHg 66%
09:00 +4°C° 0 mm 7 mps 756 mmHg 62%
10:00 +4°C° 0 mm 8 mps 756 mmHg 57%
11:00 +5°C° 0 mm 8 mps 756 mmHg 55%
12:00 +5°C° 0 mm 8 mps 756 mmHg 54%
13:00 +6°C° 0 mm 8 mps 756 mmHg 52%
14:00 +6°C° 0 mm 8 mps 756 mmHg 52%
15:00 +7°C° 0 mm 8 mps 756 mmHg 53%
16:00 +7°C° 0 mm 8 mps 756 mmHg 53%
17:00 +6°C° 0.2 mm 7 mps 756 mmHg 64%
18:00 +4°C° 0.2 mm 6 mps 756 mmHg 75%
19:00 +3°C° 0.2 mm 6 mps 757 mmHg 85%
20:00 +2°C° 0 mm 6 mps 757 mmHg 86%
21:00 +2°C° 0 mm 6 mps 757 mmHg 87%
22:00 +2°C° 0 mm 6 mps 757 mmHg 88%
23:00 +2°C° 0.1 mm 6 mps 757 mmHg 89%

23 Abril, Viernes

Tiempo Temperatura Precipitaciones Viento Presión Humedad
00:00 +1°C° 0.1 mm 6 mps 757 mmHg 89%
01:00 +1°C° 0.1 mm 6 mps 758 mmHg 90%
02:00 +1°C° 0 mm 6 mps 758 mmHg 89%
03:00 +1°C° 0 mm 6 mps 758 mmHg 88%
04:00 +1°C° 0 mm 6 mps 758 mmHg 87%
05:00 +1°C° 0 mm 6 mps 759 mmHg 86%
06:00 +2°C° 0 mm 6 mps 759 mmHg 85%
07:00 +2°C° 0 mm 6 mps 760 mmHg 84%
08:00 +2°C° 0 mm 6 mps 760 mmHg 82%
09:00 +3°C° 0 mm 6 mps 761 mmHg 80%
10:00 +4°C° 0 mm 6 mps 761 mmHg 79%
11:00 +4°C° 0.2 mm 6 mps 761 mmHg 74%
12:00 +5°C° 0.2 mm 6 mps 761 mmHg 69%
13:00 +7°C° 0.2 mm 6 mps 762 mmHg 64%
14:00 +7°C° 0.2 mm 6 mps 762 mmHg 59%
15:00 +8°C° 0.2 mm 6 mps 762 mmHg 55%
16:00 +9°C° 0.2 mm 6 mps 762 mmHg 50%
17:00 +7°C° 0 mm 5 mps 762 mmHg 51%
18:00 +5°C° 0 mm 5 mps 763 mmHg 53%
19:00 +4°C° 0 mm 4 mps 763 mmHg 54%
20:00 +3°C° 0 mm 4 mps 764 mmHg 55%
21:00 +2°C° 0 mm 3 mps 764 mmHg 57%
22:00 +2°C° 0 mm 2 mps 764 mmHg 58%
23:00 +1°C° 0 mm 3 mps 764 mmHg 58%

24 Abril, Sábado

Tiempo Temperatura Precipitaciones Viento Presión Humedad
00:00 +1°C° 0 mm 3 mps 763 mmHg 58%
01:00 +1°C° 0 mm 3 mps 763 mmHg 58%
02:00 +1°C° 0 mm 3 mps 763 mmHg 57%
03:00 +1°C° 0 mm 4 mps 762 mmHg 56%
04:00 +1°C° 0 mm 5 mps 762 mmHg 56%
05:00 +2°C° 0 mm 5 mps 762 mmHg 62%
06:00 +2°C° 0 mm 6 mps 761 mmHg 69%
07:00 +3°C° 0 mm 7 mps 761 mmHg 75%
08:00 +3°C° 0 mm 7 mps 761 mmHg 76%
09:00 +4°C° 0 mm 7 mps 761 mmHg 76%
10:00 +4°C° 0 mm 7 mps 761 mmHg 77%
11:00 +4°C° 0 mm 7 mps 761 mmHg 76%
12:00 +5°C° 0 mm 7 mps 761 mmHg 75%
13:00 +5°C° 0 mm 7 mps 761 mmHg 74%
14:00 +5°C° 0.2 mm 7 mps 761 mmHg 74%
15:00 +6°C° 0.2 mm 7 mps 761 mmHg 74%
16:00 +6°C° 0.2 mm 7 mps 761 mmHg 74%
17:00 +5°C° 0.2 mm 6 mps 762 mmHg 74%
18:00 +5°C° 0.2 mm 4 mps 762 mmHg 75%
19:00 +4°C° 0.2 mm 3 mps 763 mmHg 76%
20:00 +3°C° 0 mm 3 mps 763 mmHg 76%
21:00 +2°C° 0 mm 2 mps 764 mmHg 77%
22:00 +1°C° 0 mm 2 mps 764 mmHg 77%
23:00 +1°C° 0 mm 2 mps 764 mmHg 77%
Mostrar más

Necesitamos Su Consentimiento

Meteoprog y nuestros Proveedores de Servicios pueden almacenar y acceder a sus datos personales como cookies, identificadores de dispositivo u otras tecnologías similares de su dispositivo y procesar dichos datos para personalizar contenido y anuncios, además de ofrecer funciones de redes sociales y analizar el tráfico.

  • Almacenar y/o acceder a información en su dispositivo

    Se puede almacenar o acceder a cookies, identificadores de dispositivo u otra información de su dispositivo para los fines anteriormente indicados.

  • Anuncios y contenido personalizados, medición de anuncios y contenido, percepciones del público, y desarrollo de productos

    Los anuncios y el contenido pueden personalizarse en base a su perfil. Se pueden añadir más datos para personalizar mejor los anuncios y contenidos. Se puede medir el rendimiento de los anuncios y contenidos. Se puede obtener la percepción sobre el público que ha visto los anuncios y contenidos. Dichos datos pueden usarse para desarrollar o mejorar la experiencia del usuario, sistemas y software.

Al hacer clic en ‘Estoy De Acuerdo’ usted permitirá el uso de las cookies, identificadores de dispositivo, balizas web u otras tecnologías similares indicadas. Su configuración puede cambiarse desde el navegador de su dispositivo.

Para ciertos fines, los intereses legítimos pueden ser considerados por encima del consentimiento. Puede leer más sobre ello en nuestra Política de Privacidad y Cookies.